DateTimeUTC,F1_A11,F1_S11,BsB_S11,BsG_S11,BsR_S11,BbsB_S11,BbsG_S11,BbsR_S11,BaB_A11,BaG_A11,BaR_A11,Tu_S11,T_S11,Uu_S11,U_S11,P_S11,T1_A11
2021-07-26T20:00:00Z,00000200,20000000,,,,,,,-000.26,-000.03,-000.26,20.2,27.0,07.8,05.2,0679.3,31.2
2021-07-26T20:01:00Z,00000200,20000000,,,,,,,0000.31,-000.23,-000.09,20.2,27.0,07.8,05.2,0679.3,31.2
2021-07-26T20:02:00Z,00000200,20000000,,,,,,,0000.12,0000.31,0000.30,20.2,27.0,07.8,05.2,0679.3,31.2
2021-07-26T20:03:00Z,00000200,60000000,,,,,,,-000.06,0000.01,-000.15,20.2,27.0,07.8,05.2,0679.3,31.2
2021-07-26T20:04:00Z,00000200,40000000,0000.07,0000.04,-000.20,-000.28,-000.09,0000.32,0000.09,0000.23,0000.39,20.3,26.8,08.0,05.4,0680.3,31.2
2021-07-26T20:05:00Z,00000200,00000000,-000.46,-000.00,0000.10,-000.29,0000.22,-000.20,0000.12,-000.21,0000.07,20.3,26.8,08.0,05.4,0680.4,31.2
2021-07-26T20:06:00Z,00000200,00000000,-000.04,0000.13,0000.58,0000.17,0000.10,0000.01,-000.12,-000.15,-000.24,20.3,26.7,07.9,05.4,0680.4,31.2
2021-07-26T20:07:00Z,00000200,00000000,0000.91,-000.07,0000.38,-000.19,0000.18,0000.29,0000.33,0000.29,0000.24,20.3,26.7,08.0,05.4,0680.4,31.2
2021-07-26T20:08:00Z,00000200,00000000,0000.01,0000.05,0000.19,0000.37,0000.08,0000.11,-000.07,0000.20,-000.38,20.3,26.7,07.9,05.4,0680.4,31.2
2021-07-26T20:09:00Z,00000200,00000000,-000.68,0000.01,0000.06,-000.06,-000.08,-000.22,0000.18,-000.15,0000.50,20.3,26.7,07.9,05.3,0680.4,31.2
2021-07-26T20:10:00Z,00000200,00000000,-000.44,0000.23,-000.09,-000.03,0000.39,0000.15,-000.55,0000.03,-000.19,20.3,26.7,08.0,05.4,0680.4,31.2
2021-07-26T20:11:00Z,00000200,00000000,-000.80,0000.08,0000.06,0000.32,0000.27,0000.34,0000.50,0000.39,0000.13,20.3,26.7,08.1,05.5,0680.4,31.2
2021-07-26T20:12:00Z,00000200,00000000,0000.74,0000.10,-000.07,0000.38,0000.10,0000.04,-000.39,-000.48,-000.30,20.3,26.7,08.0,05.4,0680.3,31.2
2021-07-26T20:13:00Z,00000200,00000000,0000.68,-000.05,0000.02,-000.03,0000.10,0000.13,0000.14,0000.04,0000.05,20.3,26.6,07.9,05.4,0680.3,31.2
2021-07-26T20:14:00Z,00000200,00000000,-000.15,-000.16,0000.13,-000.14,0000.14,-000.09,0000.04,-000.02,0000.21,20.3,26.6,08.0,05.4,0680.3,31.2
2021-07-26T20:15:00Z,00000200,00000000,-000.38,0000.31,0000.36,-000.04,-000.04,0000.23,-000.19,0000.14,0000.01,20.3,26.6,07.9,05.4,0680.3,31.2
2021-07-26T20:16:00Z,00000200,00000000,0000.25,0000.00,-000.04,-000.06,0000.28,0000.03,0000.15,-000.15,-000.21,20.3,26.6,07.9,05.4,0680.4,31.2
2021-07-26T20:17:00Z,00000200,00000000,0000.42,0000.19,-000.29,-000.28,0000.12,-000.16,-000.28,0000.06,-000.01,20.3,26.6,08.0,05.4,0680.4,31.2
2021-07-26T20:18:00Z,00000200,00000000,0000.19,0000.23,0000.01,0000.25,0000.27,-000.15,0000.26,-000.16,-000.12,20.3,26.6,07.9,05.4,0680.3,31.2
2021-07-26T20:19:00Z,00000200,00000000,0000.70,0000.15,0000.26,0000.03,0000.25,0000.20,0000.18,0000.48,0000.49,20.2,26.6,07.8,05.3,0680.4,31.2
2021-07-26T20:20:00Z,00000200,00000000,0000.25,0000.13,0000.34,-000.45,0000.28,0000.08,-000.10,-000.06,0000.03,20.2,26.6,08.0,05.4,0680.4,31.2
2021-07-26T20:21:00Z,00000200,00000000,0000.30,0000.20,0000.31,0000.07,0000.30,0000.47,-000.00,-000.36,-000.24,20.2,26.6,07.9,05.4,0680.4,31.2
2021-07-26T20:22:00Z,00000200,00000000,-000.02,-000.01,0000.91,0000.33,0000.03,0000.19,0000.35,0000.36,0000.21,20.2,26.5,08.0,05.5,0680.4,31.2
2021-07-26T20:23:00Z,00000200,00000000,0000.12,-000.29,0000.35,-000.12,-000.12,0000.12,-000.15,-000.20,0000.07,20.2,26.5,08.0,05.4,0680.4,31.2
2021-07-26T20:24:00Z,00000200,00000000,0000.21,-000.13,0000.01,0000.22,0000.16,-000.25,0000.14,0000.41,0000.14,20.2,26.5,08.1,05.5,0680.4,31.2
2021-07-26T20:25:00Z,00000200,00000000,0000.07,0000.05,0000.14,0000.27,0000.30,0000.16,0000.12,-000.06,0000.15,20.2,26.5,08.1,05.5,0680.3,31.1
2021-07-26T20:26:00Z,00000200,00000000,0000.16,0000.36,0000.11,-000.01,0000.11,0000.20,0000.19,0000.26,-000.08,20.2,26.5,08.2,05.6,0680.4,31.1
2021-07-26T20:27:00Z,00000200,00000000,0000.22,0000.07,0000.00,-000.22,0000.12,-000.27,-000.14,-000.05,-000.37,20.2,26.5,08.2,05.6,0680.4,31.1
2021-07-26T20:28:00Z,00000200,00000000,-000.35,0000.00,0000.05,0000.04,-000.02,-000.03,-000.11,-000.03,0000.23,20.2,26.5,08.1,05.5,0680.4,31.1
2021-07-26T20:29:00Z,00000200,00000000,-000.00,-000.13,0000.07,0000.23,0000.31,0000.05,-000.08,-000.24,-000.10,20.2,26.5,08.2,05.6,0680.4,31.1
2021-07-26T20:30:00Z,00000200,00000000,-000.21,-000.12,0000.52,-000.22,0000.06,0000.14,0000.08,-000.03,0000.09,20.2,26.5,08.2,05.6,0680.4,31.2
2021-07-26T20:31:00Z,00000200,00000000,-000.28,0000.11,0000.24,-000.15,0000.04,0000.08,-000.22,0000.00,-000.08,20.2,26.5,08.2,05.6,0680.4,31.2
2021-07-26T20:32:00Z,00000200,00000000,-000.43,0000.10,0000.02,-000.42,0000.01,0000.04,0000.38,0000.22,0000.45,20.2,26.5,08.2,05.6,0680.4,31.2
2021-07-26T20:33:00Z,00000200,00000000,-000.53,0000.25,0000.02,0000.57,-000.08,0000.25,0000.05,-000.04,-000.40,20.1,26.5,08.3,05.7,0680.4,31.2
2021-07-26T20:34:00Z,00000200,00000000,-000.11,0000.08,0000.36,-000.02,0000.14,0000.33,-000.36,-000.10,-000.09,20.1,26.5,08.3,05.7,0680.4,31.2
2021-07-26T20:35:00Z,00000200,00000000,0000.22,0000.17,0000.33,-000.13,-000.15,0000.36,-000.12,-000.17,0000.09,20.1,26.5,08.1,05.5,0680.4,31.2
2021-07-26T20:36:00Z,00000200,00000000,0000.29,-000.05,0000.38,-000.05,0000.10,0000.08,0000.21,0000.00,-000.02,20.1,26.5,08.2,05.6,0680.4,31.2
2021-07-26T20:37:00Z,00000200,00000000,-000.68,-000.18,0000.16,0000.02,-000.15,-000.20,-000.17,0000.32,-000.28,20.1,26.4,08.2,05.6,0680.5,31.2
2021-07-26T20:38:00Z,00000200,00000000,-000.19,-000.11,-000.06,-000.12,-000.05,0000.01,0000.07,-000.33,0000.24,20.1,26.4,08.1,05.5,0680.5,31.2
2021-07-26T20:39:00Z,00000200,00000000,0000.50,0000.11,-000.06,0000.02,0000.09,0000.07,-000.16,-000.24,0000.01,20.1,26.4,08.1,05.5,0680.5,31.1
2021-07-26T20:40:00Z,00000200,00000000,-000.28,0000.20,0000.00,0001.05,-000.04,0000.18,-000.07,0000.17,-000.22,20.1,26.4,08.1,05.5,0680.5,31.2
2021-07-26T20:41:00Z,00000200,00000000,0000.30,0000.28,0000.21,0000.06,0000.16,-000.07,-000.06,-000.03,0000.05,20.1,26.4,08.1,05.5,0680.5,31.2
2021-07-26T20:42:00Z,00000200,00000000,-000.07,0000.04,-000.06,-000.30,-000.14,0000.11,0000.48,0000.17,0000.41,20.1,26.4,08.0,05.5,0680.5,31.1
2021-07-26T20:43:00Z,00000200,00000000,-000.16,0000.17,-000.01,0000.40,0000.15,-000.35,-000.18,-000.19,-000.25,20.1,26.4,08.2,05.6,0680.5,31.1
2021-07-26T20:44:00Z,00000200,00000000,0000.25,0000.19,-000.13,0000.42,-000.11,-000.11,-000.09,0000.21,-000.04,20.0,26.4,08.1,05.5,0680.5,31.2
2021-07-26T20:45:00Z,00000200,00000000,-000.46,0000.04,0000.59,0000.35,-000.08,0000.04,-000.19,-000.45,-000.12,20.0,26.3,08.0,05.4,0680.5,31.1
2021-07-26T20:46:00Z,00000200,00000000,-000.11,-000.26,-000.06,0000.69,-000.05,-000.02,-000.14,-000.00,-000.20,20.0,26.4,07.8,05.3,0680.6,31.1
2021-07-26T20:47:00Z,00000200,00000000,-000.51,-000.10,0000.35,-000.24,0000.04,0000.45,0000.03,-000.23,0000.13,20.0,26.4,07.8,05.3,0680.6,31.2
2021-07-26T20:48:00Z,00000200,00000000,-000.30,0000.13,-000.09,-000.86,0000.01,-000.04,-000.06,0000.10,0000.02,20.0,26.3,07.8,05.3,0680.6,31.1
2021-07-26T20:49:00Z,00000200,00000000,0000.06,-000.08,0000.31,-000.45,0000.18,-000.25,0000.05,0000.02,-000.39,20.0,26.3,07.8,05.3,0680.6,31.1
2021-07-26T20:50:00Z,00000200,00000000,0000.07,0000.02,0000.13,0000.10,-000.18,0000.46,-000.28,-000.39,0000.25,20.0,26.3,07.7,05.2,0680.6,31.1
2021-07-26T20:51:00Z,00000200,00000000,-000.23,-000.43,-000.04,0000.38,-000.04,0000.35,0000.07,0000.13,-000.25,20.0,26.3,07.6,05.2,0680.6,31.1
2021-07-26T20:52:00Z,00000200,00000000,-000.49,-000.10,-000.04,0000.06,-000.15,0000.02,-000.14,0000.03,-000.00,20.0,26.3,07.6,05.2,0680.6,31.1
2021-07-26T20:53:00Z,00000200,00000000,-000.21,0000.34,0000.18,0000.61,0000.11,0000.12,-000.20,-000.00,-000.20,19.9,26.3,07.6,05.2,0680.6,31.1
2021-07-26T20:54:00Z,00000200,00000000,0000.56,0000.12,0000.01,-000.08,-000.01,-000.12,0000.22,-000.19,-000.14,19.9,26.3,07.7,05.3,0680.6,31.1
2021-07-26T20:55:00Z,00000200,00000000,0000.14,0000.17,0000.37,0000.08,-000.26,0000.20,-000.20,0000.15,-000.10,19.9,26.3,07.6,05.2,0680.6,31.1
2021-07-26T20:56:00Z,00000200,00000000,-000.45,0000.11,0000.19,-000.20,-000.11,-000.09,-000.24,-000.33,0000.10,19.9,26.3,07.5,05.1,0680.6,31.1
2021-07-26T20:57:00Z,00000200,40000000,,,,,,,0000.51,0000.44,0000.27,20.0,26.3,07.6,05.2,0680.8,31.1
2021-07-26T20:58:00Z,00000200,60000000,,,,,,,-000.48,-000.48,-000.41,19.7,26.4,07.6,05.1,0679.6,31.1
2021-07-26T20:59:00Z,00000200,20000000,,,,,,,-000.27,0000.04,-000.12,19.7,26.5,07.5,05.0,0679.6,31.1
